Regional Weather Roundup
Issued by NWS Cleveland, OH

Home | Current Version | Previous Version | Graphics & Text | Print | Product List | Glossary On
Versions: 1 2 3 4 5 6 7 8 9 10 11 12 13 14 15 16 17 18 19 20 21 22 23 24 25 26 27 28 29 30 31 32 33 34 35 36 37 38 39 40 41 42 43 44 45 46 47 48 49 50
000
ASUS41 KCLE 291700
RWRCLE
OHIO REGIONAL WEATHER ROUNDUP
NATIONAL WEATHER SERVICE WILMINGTON, OH
100 PM EDT TUE JUL 29 2014

NOTE: "FAIR" INDICATES FEW OR NO CLOUDS BELOW 12,000 FEET WITH NO
SIGNIFICANT WEATHER AND/OR OBSTRUCTIONS TO VISIBILITY.

OHZ001>008-015>018-024>027-034-035-043-044-291800-
   NORTHWEST OHIO

CITY           SKY/WX    TMP DP  RH WIND       PRES   REMARKS
DEFIANCE       CLOUDY    69  50  50 VRB5      30.04F
FINDLAY        MOSUNNY   69  49  48 SW9       30.04F
TOLEDO EXPRESS CLOUDY    70  49  47 SW8       30.02F
TOLEDO METCALF SUNNY     69  48  47 W9        30.03F
LIMA           MOSUNNY   68  53  58 W6        30.06S
$$

OHZ009>014-019>023-028>033-038-089-291800-
   NORTHEAST OHIO

CITY           SKY/WX    TMP DP  RH WIND       PRES   REMARKS
CLE-HOPKINS    PTSUNNY   65  47  52 NW9       30.04S
CLE-LAKEFRONT  SUNNY     66  49  54 W9        30.01S
CUY CO. ARPT   NOT AVBL
LORAIN-ELYRIA  MOSUNNY   70  52  52 NW12      30.03F
ASHTABULA      CLOUDY    63  51  65 W10       30.02R
AKRON-CANTON   CLOUDY    65  48  54 W7        30.03S
WOOSTER        NOT AVBL
MANSFIELD      CLOUDY    64  47  53 VRB5      30.05F
YOUNGSTOWN     CLOUDY    63  48  58 N9        30.02R
$$

OHZ042-051>053-060>062-070>072-077>081-291800-
  SOUTHWEST OHIO

CITY           SKY/WX    TMP DP  RH WIND       PRES   REMARKS
CINC-COVINGTON MOSUNNY   67  49  52 NW8       30.08S
CINC-LUNKEN    MOSUNNY   70  51  51 VRB3      30.08F
HAMILTON       SUNNY     68  50  52 W7        30.09S
DAYTON         NOT AVBL
WRIGHT-PAT AFB MOSUNNY   66  50  56 VRB3      30.07F
DAYTON GENERAL SUNNY     66  48  52 MISG      30.07S
WILMINGTON     MOSUNNY   66  50  56 NW7       30.07S
$$

OHZ036-037-039>041-045>050-054>059-063>069-073>076-082>088-291800-
  CENTRAL AND SOUTHEAST OHIO

CITY           SKY/WX    TMP DP  RH WIND       PRES   REMARKS
COLUMBUS       PTSUNNY   67  48  50 NW6       30.05S
OSU AIRPORT    CLOUDY    65  50  58 W9        30.06S
BOLTON FIELD   PTSUNNY   64  52  63 NW6       30.06S
RICKENBACK AFB NOT AVBL
NEWARK         CLOUDY    66  47  50 W6        30.05S
MARION         MOSUNNY   67  48  50 CALM      30.06S
LANCASTER      PTSUNNY   66  52  60 VRB3      30.06S
ZANESVILLE     PTSUNNY   67  49  52 VRB5      30.04F
NEW PHILLY     CLOUDY    64  52  64 NW8       30.04S
$$



USA.gov is the U.S. government's official web portal to all federal, state and local government web resources and services.